Auburn, AL

2:24 AM CDT on June 26, 2017 (GMT -0500)
Auburn-opelika-pitts

Weather History for KAUO - October, 2012

Change the Weather History Date:

Saturday, October 6, 2012

  Actual Average Record
Temperature  
Mean Temperature 73 °F -  
Max Temperature 82 °F - 89 °F (1959)
Min Temperature 63 °F - 37 °F (1974)
Degree Days  
Heating Degree Days 0    
Month to date heating degree days 2  
Since 1 July heating degree days 2  
Cooling Degree Days 8    
Month to date cooling degree days 25  
Year to date cooling degree days 2021  
Growing Degree Days 22 (Base 50)    
Moisture  
Dew Point 63 °F    
Average Humidity 74    
Maximum Humidity 94    
Minimum Humidity 48    
Precipitation  
Precipitation 0.00 in - 3.04 in (2005)
Month to date precipitation 0.43  
Year to date precipitation 22.07  
Sea Level Pressure  
Sea Level Pressure 29.99 in    
Wind  
Wind Speed 4 mph (NW)    
Max Wind Speed 10 mph    
Max Gust Speed 18 mph    
Visibility 8 miles    
Events      
T = Trace of Precipitation, MM = Missing Value Source: NWS Daily Summary

Daily Weather History Graph

Daily Weather History Graph

Search for Another Location

Airport or City:

Trip Planner

Search our weather history database for the weather conditions in past years. The results will help you decide how hot, cold, wet, or windy it might be!

Date:

Astronomy

Oct. 06, 2012 Rise Set
Actual Time 6:39 AM CDT 6:19 PM CDT
Civil Twilight 6:14 AM CDT 6:43 PM CDT
Nautical Twilight 5:46 AM CDT 7:12 PM CDT
Astronomical Twilight 5:17 AM CDT 7:40 PM CDT
Moon 10:48 PM CDT (10/6) 12:18 PM CDT (10/6)
Length of Visible Light 12h 28m
Length of Day
11h 39m
Waning Gibbous, 65% of the Moon is Illuminated
Oct 6
Waning Gibbous
Oct 8
Last Quarter
Oct 15
New
Oct 21
First Quarter
Oct 29
Full

Hourly Weather History & Observations

Time (CDT) Temp. Heat Index Dew Point Humidity Pressure Visibility Wind Dir Wind Speed Gust Speed Precip Events Conditions
12:15 AM 64.4 °F - 60.8 °F 88% 30.05 in 10.0 mi Calm Calm - N/A   Clear
12:35 AM 64.4 °F - 62.6 °F 94% 30.04 in 10.0 mi Calm Calm - N/A   Clear
12:55 AM 64.4 °F - 60.8 °F 88% 30.04 in 10.0 mi Calm Calm - N/A   Clear
1:15 AM 64.4 °F - 60.8 °F 88% 30.04 in 10.0 mi Calm Calm - N/A   Clear
1:35 AM 64.4 °F - 62.6 °F 94% 30.02 in 10.0 mi Calm Calm - N/A   Clear
1:55 AM 64.4 °F - 62.6 °F 94% 30.02 in 10.0 mi Calm Calm - N/A   Clear
2:15 AM 64.4 °F - 60.8 °F 88% 30.01 in 10.0 mi Calm Calm - N/A   Clear
2:35 AM 64.4 °F - 60.8 °F 88% 30.00 in 7.0 mi Calm Calm - N/A   Clear
2:55 AM 64.4 °F - 62.6 °F 94% 30.00 in 9.0 mi Calm Calm - N/A   Clear
3:15 AM 62.6 °F - 60.8 °F 94% 30.00 in 8.0 mi Calm Calm - N/A   Mostly Cloudy
3:35 AM 66.2 °F - 64.4 °F 94% 29.99 in 8.0 mi Calm Calm - N/A   Overcast
3:55 AM 66.2 °F - 64.4 °F 94% 29.99 in 0.5 mi Calm Calm - N/A   Overcast
4:35 AM 66.2 °F - 64.4 °F 94% 30.00 in 1.5 mi WNW 4.6 mph - N/A   Overcast
4:55 AM 66.2 °F - 64.4 °F 94% 30.01 in 0.2 mi NW 4.6 mph - N/A   Overcast
5:35 AM 66.2 °F - 64.4 °F 94% 30.01 in 0.2 mi WNW 4.6 mph - N/A   Overcast
5:55 AM 66.2 °F - 64.4 °F 94% 30.02 in 0.2 mi WNW 5.8 mph - N/A   Overcast
6:15 AM 66.2 °F - 64.4 °F 94% 30.02 in 0.2 mi NW 6.9 mph - N/A   Overcast
6:55 AM 66.2 °F - 64.4 °F 94% 30.02 in 0.2 mi NW 5.8 mph - N/A   Overcast
7:15 AM 66.2 °F - 64.4 °F 94% 30.02 in 0.2 mi NW 6.9 mph - N/A   Overcast
7:35 AM 66.2 °F - 64.4 °F 94% 30.02 in 0.2 mi NNW 4.6 mph - N/A   Overcast
7:55 AM 66.2 °F - 64.4 °F 94% 30.02 in 0.2 mi NW 3.5 mph - N/A   Overcast
8:15 AM 68.0 °F - 66.2 °F 94% 30.02 in 0.8 mi NW 3.5 mph - N/A   Overcast
8:35 AM 68.0 °F - 66.2 °F 94% 30.03 in 2.0 mi NW 5.8 mph - N/A   Overcast
8:55 AM 69.8 °F - 66.2 °F 88% 30.03 in 3.0 mi WNW 4.6 mph - N/A   Overcast
9:15 AM 69.8 °F - 66.2 °F 88% 30.03 in 5.0 mi Calm Calm - N/A   Overcast
9:35 AM 71.6 °F - 68.0 °F 88% 30.03 in 10.0 mi NW 3.5 mph - N/A   Partly Cloudy
9:55 AM 73.4 °F - 66.2 °F 78% 30.03 in 10.0 mi NNW 4.6 mph - N/A   Clear
10:15 AM 75.2 °F - 64.4 °F 69% 30.03 in 10.0 mi NW 3.5 mph - N/A   Clear
10:35 AM 78.8 °F - 64.4 °F 61% 30.03 in 10.0 mi NW 8.1 mph - N/A   Clear
10:55 AM 78.8 °F - 62.6 °F 57% 30.02 in 10.0 mi West 6.9 mph - N/A   Clear
11:15 AM 78.8 °F - 62.6 °F 57% 30.02 in 10.0 mi West 5.8 mph - N/A   Clear
11:35 AM 78.8 °F - 60.8 °F 54% 30.02 in 10.0 mi WNW 6.9 mph - N/A   Clear
11:55 AM 78.8 °F - 62.6 °F 57% 30.01 in 10.0 mi West 4.6 mph - N/A   Scattered Clouds
12:15 PM 78.8 °F - 62.6 °F 57% 30.01 in 10.0 mi NW 6.9 mph - N/A   Mostly Cloudy
12:35 PM 80.6 °F 81.8 °F 62.6 °F 54% 29.99 in 10.0 mi Calm Calm - N/A   Partly Cloudy
12:55 PM 80.6 °F 81.8 °F 62.6 °F 54% 29.99 in 10.0 mi NW 8.1 mph - N/A   Partly Cloudy
1:15 PM 82.4 °F 82.9 °F 60.8 °F 48% 29.97 in 10.0 mi West 8.1 mph - N/A   Partly Cloudy
1:35 PM 82.4 °F 82.9 °F 60.8 °F 48% 29.96 in 10.0 mi WSW 4.6 mph - N/A   Clear
1:55 PM 82.4 °F 82.9 °F 60.8 °F 48% 29.96 in 10.0 mi WNW 9.2 mph - N/A   Clear
2:15 PM 82.4 °F 82.9 °F 60.8 °F 48% 29.94 in 10.0 mi West 5.8 mph - N/A   Clear
2:35 PM 82.4 °F 82.9 °F 60.8 °F 48% 29.94 in 10.0 mi WNW 9.2 mph - N/A   Clear
2:55 PM 82.4 °F 82.9 °F 60.8 °F 48% 29.93 in 10.0 mi NW 6.9 mph - N/A   Clear
3:15 PM 82.4 °F 82.9 °F 60.8 °F 48% 29.93 in 10.0 mi West 5.8 mph - N/A   Partly Cloudy
3:35 PM 82.4 °F 82.9 °F 60.8 °F 48% 29.93 in 10.0 mi Calm Calm - N/A   Mostly Cloudy
3:55 PM 82.4 °F 82.9 °F 60.8 °F 48% 29.93 in 10.0 mi WSW 8.1 mph - N/A   Mostly Cloudy
4:15 PM 82.4 °F 82.9 °F 60.8 °F 48% 29.92 in 10.0 mi West 5.8 mph - N/A   Mostly Cloudy
4:35 PM 80.6 °F 81.5 °F 60.8 °F 51% 29.93 in 10.0 mi Calm Calm - N/A   Scattered Clouds
4:55 PM 80.6 °F 81.5 °F 60.8 °F 51% 29.93 in 10.0 mi Calm Calm - N/A   Clear
5:15 PM 80.6 °F 81.8 °F 62.6 °F 54% 29.93 in 10.0 mi Calm Calm - N/A   Partly Cloudy
5:35 PM 78.8 °F - 62.6 °F 57% 29.94 in 10.0 mi Calm Calm - N/A   Clear
5:55 PM 78.8 °F - 62.6 °F 57% 29.94 in 10.0 mi Calm Calm - N/A   Partly Cloudy
6:15 PM 77.0 °F - 62.6 °F 61% 29.95 in 10.0 mi Calm Calm - N/A   Mostly Cloudy
6:35 PM 77.0 °F - 62.6 °F 61% 29.95 in 10.0 mi Calm Calm - N/A   Overcast
6:55 PM 75.2 °F - 62.6 °F 65% 29.95 in 10.0 mi Calm Calm - N/A   Overcast
7:15 PM 75.2 °F - 62.6 °F 65% 29.96 in 10.0 mi NW 8.1 mph - N/A   Mostly Cloudy
7:35 PM 73.4 °F - 64.4 °F 73% 29.97 in 10.0 mi NNW 9.2 mph - N/A   Mostly Cloudy
7:55 PM 73.4 °F - 64.4 °F 73% 29.97 in 10.0 mi NNW 6.9 mph - N/A   Partly Cloudy
8:15 PM 71.6 °F - 64.4 °F 78% 29.98 in 10.0 mi Calm Calm - N/A   Mostly Cloudy
8:35 PM 71.6 °F - 64.4 °F 78% 29.98 in 10.0 mi Calm Calm - N/A   Partly Cloudy
8:55 PM 69.8 °F - 62.6 °F 78% 29.99 in 10.0 mi Calm Calm - N/A   Clear
9:15 PM 69.8 °F - 62.6 °F 78% 29.99 in 10.0 mi Calm Calm - N/A   Clear
9:35 PM 69.8 °F - 62.6 °F 78% 30.00 in 10.0 mi North 9.2 mph - N/A   Partly Cloudy
9:55 PM 68.0 °F - 62.6 °F 83% 30.01 in 10.0 mi NNW 8.1 mph - N/A   Scattered Clouds
10:15 PM 66.2 °F - 62.6 °F 88% 30.01 in 10.0 mi NNW 13.8 mph - N/A   Mostly Cloudy
10:35 PM 66.2 °F - 60.8 °F 83% 30.01 in 10.0 mi North 12.7 mph 18.4 mph N/A   Mostly Cloudy
10:55 PM 64.4 °F - 59.0 °F 83% 30.00 in 10.0 mi North 10.4 mph - N/A   Clear
11:15 PM 64.4 °F - 59.0 °F 83% 30.00 in 10.0 mi NNW 5.8 mph - N/A   Clear
11:55 PM 62.6 °F - 59.0 °F 88% 29.99 in 10.0 mi North 6.9 mph - N/A   Clear